Location: Mattawa
(46.3175°N, 78.7022°W)
Time: 06:02:51
(UTC-04:00)

ISS - Visible Passes

Search period start: 07 July 2020 00:00
Search period end: 17 July 2020 00:00
Orbit: 417 x 421 km, 51.6° (Epoch: 07 July)

Date Brightness Start Highest point End Pass type
(mag) Time Alt. Az. Time Alt. Az. Time Alt. Az.
07 Jul -1.0 01:16:33 11° E 01:16:33 11° E 01:16:40 10° E visible
07 Jul -3.5 02:49:29 40° W 02:50:30 67° NNW 02:53:51 10° ENE visible
07 Jul -2.0 04:24:36 10° WNW 04:27:41 32° N 04:30:45 10° ENE visible
08 Jul -3.6 02:03:17 66° ENE 02:03:17 66° ENE 02:06:14 10° ENE visible
08 Jul -2.2 03:36:48 10° WNW 03:39:56 34° N 03:43:03 10° ENE visible
09 Jul -2.0 01:17:01 24° ENE 01:17:01 24° ENE 01:18:36 10° ENE visible
09 Jul -2.5 02:49:56 17° WNW 02:52:11 40° NNW 02:55:24 10° ENE visible
09 Jul -1.9 04:26:25 10° WNW 04:29:30 33° N 04:32:35 10° ENE visible
10 Jul -1.1 00:30:39 11° ENE 00:30:39 11° ENE 00:30:50 10° ENE visible
10 Jul -2.9 02:03:34 37° WNW 02:04:28 50° NNW 02:07:45 10° ENE visible
10 Jul -1.9 03:38:40 10° WNW 03:41:43 31° N 03:44:47 10° ENE visible
11 Jul -3.4 01:17:04 62° NNE 01:17:04 62° NNE 01:20:07 10° ENE visible
11 Jul -1.9 02:50:51 10° WNW 02:53:56 32° N 02:57:00 10° ENE visible
11 Jul -2.5 04:27:58 10° WNW 04:31:13 44° NNE 04:34:28 10° E visible
12 Jul -2.7 00:30:20 36° ENE 00:30:20 36° ENE 00:32:28 10° ENE visible
12 Jul -2.1 02:03:13 11° WNW 02:06:09 34° N 02:09:16 10° ENE visible
12 Jul -2.1 03:40:18 10° WNW 03:43:28 36° N 03:46:37 10° E visible
12 Jul -2.5 23:42:57 28° E 23:42:57 28° E 23:44:46 10° ENE visible
13 Jul -2.4 01:15:44 14° W 01:18:21 40° NNW 01:21:34 10° ENE visible
13 Jul -1.9 02:52:34 10° WNW 02:55:40 33° N 02:58:45 10° ENE visible
13 Jul -3.6 04:29:25 10° WNW 04:32:47 79° NNE 04:36:08 10° ESE visible
13 Jul -3.2 22:50:46 10° SSW 22:53:52 35° SE 22:56:58 10° ENE visible
14 Jul -2.9 00:27:19 10° W 00:30:35 50° NNW 00:33:53 10° ENE visible
14 Jul -1.8 02:04:47 10° WNW 02:07:51 31° N 02:10:55 10° ENE visible
14 Jul -3.1 03:41:45 10° WNW 03:45:04 57° NNE 03:48:23 10° E visible
14 Jul -2.6 22:03:37 10° SSW 22:06:18 23° SE 22:09:01 10° E visible
14 Jul -3.5 23:39:31 10° WSW 23:42:51 68° NNW 23:46:12 10° ENE visible
15 Jul -1.9 01:16:57 10° WNW 01:20:01 32° N 01:23:06 10° ENE visible
15 Jul -2.5 02:54:04 10° WNW 02:57:18 44° NNE 03:00:33 10° E visible
15 Jul -3.5 04:30:54 10° WNW 04:34:08 45° SW 04:37:21 10° SE visible
15 Jul -3.9 22:51:47 10° WSW 22:55:09 84° SSE 22:58:31 10° ENE visible
16 Jul -2.1 00:29:04 10° WNW 00:32:11 35° N 00:35:19 10° ENE visible
16 Jul -2.2 02:06:21 10° WNW 02:09:30 36° NNE 02:12:39 10° E visible
16 Jul -3.9 03:43:08 10° WNW 03:46:29 71° SSW 03:49:50 10° SE visible
16 Jul -3.7 22:04:11 10° SW 22:07:28 55° SSE 22:10:46 10° ENE visible
16 Jul -2.4 23:41:09 10° W 23:44:22 40° NNW 23:47:34 10° ENE visible
